Torna al catalogo

IUS R/B(2)

LostGEO
NORAD 21641·ROCKET BODY·🇺🇸 United States

Lanciato Aug 2, 1991 da Cape Canaveral Space Force Station

Loading…

TLE

In scadenzaSource: Space-Track

Epoca: Jul 21, 2026, 04:21 UTC

1 21641U 91054D   26202.18137641 -.00000264  00000-0  00000+0 0  9998
2 21641  13.7105 332.6764 0035977 348.5339   6.2354  1.00329673 47709

Traccia IUS R/B(2) in tempo reale con AllMySat

Download on the App Store